Location: Unspecified
(0.0000°N, 0.0000°E)
Time: 20:58:20
(UTC+02:00)

GPS 2-15 Rocket1 - Visible Passes

Search period start: 24 June 2017 00:00
Search period end: 04 July 2017 00:00
Orbit: 624 x 676 km, 19.8° (Epoch: 23 June)

Date Brightness Start Highest point End Pass type
(mag) Time Alt. Az. Time Alt. Az. Time Alt. Az.
24 Jun 5.8 05:22:58 16° E 05:22:58 16° E 05:23:58 10° E visible
24 Jun 3.4 07:00:36 21° W 07:03:45 62° NNW 07:08:26 10° ENE visible
24 Jun 5.2 20:58:03 10° SW 21:01:12 17° SSW 21:03:59 11° SSE visible
25 Jun 4.4 05:47:36 39° E 05:47:36 39° E 05:50:39 10° ENE visible
25 Jun 4.4 07:25:49 10° W 07:30:08 33° NNW 07:34:24 10° NE visible
25 Jun 5.5 21:26:37 10° SSW 21:27:52 11° SSW 21:28:39 11° S visible
26 Jun 3.4 06:12:14 57° NNW 06:12:14 57° NNW 06:16:56 10° ENE visible
27 Jun 6.3 04:59:12 10° ENE 04:59:12 10° ENE 04:59:12 10° ENE visible
27 Jun 4.4 06:36:50 24° WNW 06:38:38 30° NNW 06:42:51 10° NE visible
28 Jun 5.5 05:23:46 21° NE 05:23:46 21° NE 05:25:25 10° NE visible
28 Jun 5.2 07:01:49 10° WNW 07:05:07 18° NNW 07:08:24 10° NNE visible
29 Jun 5.0 05:48:21 25° N 05:48:21 25° N 05:51:16 10° NE visible
29 Jun 5.6 07:30:13 10° NNW 07:31:45 11° NNW 07:33:18 10° N visible
30 Jun 5.2 06:12:53 17° NNW 06:13:37 17° NNW 06:16:47 10° NNE visible
01 Jul 5.7 06:39:01 10° NNW 06:40:16 11° NNW 06:41:32 10° N visible
02 Jul 5.9 05:24:19 12° NNE 05:24:19 12° NNE 05:25:08 10° NNE visible
03 Jul 5.9 05:48:51 10° NNW 05:48:51 10° NNW 05:49:38 10° N visible
